Theta_e
301 300 299 300 308 311 316 321 321 319 318 318 318 320 319 317 318 316 318 318 319 319 319 320 320 320 318 312 312 314 314 316 316 314 308 307 308 312 313 317 322 315 318 320
301 300 301 300 304 311 317 320 321 317 315 322 321 319 317 317 318 318 318 318 319 319 319 320 320 318 311 310 312 314 313 316 317 314 310 308 310 311 311 313 313 318 322 322
301 301 301 301 301 310 315 319 320 317 315 319 320 321 319 318 316 317 318 318 318 318 319 319 320 318 312 309 310 307 310 316 317 319 318 316 313 311 309 312 317 320 319 318
303 301 301 301 299 308 314 317 319 318 320 318 318 319 319 320 319 316 317 317 318 318 319 319 318 319 313 309 310 310 313 317 318 317 315 312 313 314 311 311 313 316 317 318
303 302 302 301 299 307 316 319 317 315 317 315 318 318 318 319 319 318 317 317 318 318 318 319 319 319 318 318 312 312 312 316 315 316 316 314 312 313 313 312 311 312 314 315
303 302 302 301 299 304 315 317 315 315 317 316 317 319 318 318 318 317 317 317 318 318 318 317 317 316 316 317 316 315 315 316 316 318 314 313 316 315 314 314 313 313 314 316
306 302 302 300 299 300 309 316 317 316 319 317 317 316 316 317 317 318 316 314 316 314 312 311 312 312 312 313 313 314 315 316 317 319 318 319 318 311 311 315 314 313 313 313
309 304 301 300 298 298 305 311 315 316 319 317 316 316 315 315 315 316 316 311 309 310 311 316 316 316 314 313 311 310 312 316 324 320 319 319 318 314 310 312 315 313 313 313
312 311 302 301 298 296 299 308 314 315 315 317 315 315 315 316 316 315 313 308 307 308 314 318 321 321 319 318 310 307 309 311 319 318 323 319 317 309 308 309 317 312 310 311
313 314 303 298 298 297 296 300 310 314 315 314 314 315 316 315 316 316 312 307 307 308 317 321 320 320 318 319 316 312 311 313 318 317 322 318 318 308 307 316 318 311 310 310
313 311 308 298 297 296 296 297 302 313 313 314 314 314 314 315 315 317 310 310 308 309 318 319 319 319 319 318 317 314 315 318 317 317 322 318 310 307 313 315 311 310 310 310
314 311 309 302 297 296 296 296 297 307 312 312 312 313 313 313 313 314 311 315 313 313 315 317 317 318 317 318 318 315 317 317 320 319 318 315 309 312 311 308 309 310 310 311
314 311 307 303 301 296 295 295 298 301 308 309 310 311 312 313 314 312 313 311 310 309 310 315 318 320 317 318 317 317 314 314 315 317 317 316 315 312 310 309 309 310 310 310
313 311 305 304 301 297 295 295 298 301 306 307 307 309 310 312 313 312 308 310 309 308 307 314 317 317 313 315 316 316 315 313 314 315 315 314 314 313 311 311 310 310 311 310
312 309 305 304 301 300 298 295 296 301 305 308 307 306 307 309 311 312 312 308 308 308 310 313 314 311 312 312 312 313 313 314 314 315 315 314 314 313 310 311 311 310 311 310
312 308 305 304 301 300 298 297 296 297 305 305 307 303 303 305 308 309 310 310 309 311 313 314 313 311 311 317 316 314 313 312 312 313 313 313 312 311 311 312 312 312 311 312
311 307 305 303 300 299 298 297 297 295 304 305 304 304 301 302 303 302 303 306 306 308 311 309 309 309 310 315 316 314 313 313 312 312 312 311 311 312 313 313 313 314 314 314
310 306 304 301 300 298 297 296 294 296 302 303 303 304 302 300 302 302 301 302 304 304 307 306 308 310 309 312 312 311 312 312 312 313 313 313 313 313 313 313 312 312 312 313
308 304 301 299 298 297 296 295 296 300 301 301 301 304 305 300 300 301 300 302 305 303 305 306 308 310 310 311 311 310 311 312 312 312 309 308 308 309 309 308 308 308 308 308
302 300 298 296 296 295 296 295 298 300 300 299 300 301 304 301 301 302 302 301 308 307 306 305 307 309 309 309 309 311 310 307 306 306 307 308 306 304 303 302 302 301 301 301
299 297 294 295 295 295 296 295 296 297 299 298 299 300 302 299 303 303 302 304 305 306 307 307 306 306 306 306 308 309 305 304 304 303 303 302 301 301 300 300 300 300 300 300
300 298 295 293 294 293 295 297 297 298 299 299 300 300 301 299 300 303 300 304 303 306 303 304 304 305 305 305 305 305 304 303 302 302 302 302 302 301 301 300 299 299 299 299
296 295 294 295 294 295 296 296 297 298 297 298 299 300 299 298 300 302 303 305 304 303 304 304 306 307 304 304 303 303 302 302 303 304 304 304 304 303 303 301 300 299 298 298
295 296 296 298 296 298 298 299 299 297 297 298 300 299 301 300 302 302 304 304 303 304 304 305 306 305 304 303 303 303 303 304 304 304 304 304 304 304 304 304 303 301 298 297
295 295 298 297 299 298 299 299 298 296 298 299 301 301 301 302 303 303 305 304 305 304 306 306 306 305 304 303 303 303 304 303 303 303 302 303 303 303 303 304 304 303 303 300
296 296 299 298 299 297 298 298 298 298 299 300 301 302 303 302 304 303 304 304 304 306 304 305 305 304 303 303 303 303 303 301 300 300 300 300 301 302 302 303 303 304 304 304
292 293 293 298 298 297 297 298 298 299 300 302 302 303 303 303 303 303 304 304 305 305 304 304 303 303 303 303 302 299 297 297 298 298 298 298 298 300 301 302 302 303 303 303
Wind_Speed
11 10 8 8 8 6 9 4 4 6 15 9 13 12 9 2 8 7 4 4 5 5 3 5 5 3 1 3 7 5 4 2 4 1 3 2 4 3 4 2 2 2 3 7
12 11 9 8 10 10 8 5 4 5 12 7 11 9 4 5 7 8 6 8 7 4 5 5 7 2 2 3 5 3 5 5 3 5 3 2 5 5 6 1 1 7 3 5
14 12 11 9 12 14 16 3 4 5 12 12 9 14 14 13 11 14 11 6 6 7 7 6 2 5 3 4 3 2 1 3 7 7 6 2 4 7 10 10 5 7 13 20
17 15 12 11 14 17 18 4 4 1 7 13 15 12 3 14 11 12 11 11 14 12 10 11 8 5 5 5 5 4 3 6 9 11 9 6 9 10 12 14 21 12 19 18
19 18 16 14 17 20 20 6 5 2 3 3 12 13 12 15 12 12 12 14 12 17 17 14 7 13 9 9 10 7 5 4 3 11 9 10 12 14 15 19 20 19 21 24
22 21 20 17 19 26 11 10 7 2 4 8 8 13 14 15 16 12 17 9 15 12 14 15 9 5 3 3 6 11 6 5 4 12 0 4 10 19 17 11 11 10 10 13
27 25 24 21 23 29 29 15 9 7 5 9 11 5 10 15 17 15 6 9 12 4 2 3 3 1 3 6 7 9 7 10 3 7 10 11 7 1 3 12 10 12 17 18
31 29 27 26 26 30 32 25 15 9 7 12 15 14 12 8 12 13 11 4 2 5 6 3 4 4 4 8 5 8 7 8 3 5 10 16 18 4 5 5 1 3 7 9
33 32 31 30 28 31 34 33 27 9 7 9 17 14 17 11 9 8 10 7 6 4 4 3 7 7 8 6 5 3 5 6 5 5 4 7 2 4 4 3 6 4 2 7
36 34 33 32 31 30 33 29 34 21 11 12 6 14 12 18 12 7 5 6 6 5 4 6 7 11 7 8 7 7 5 6 9 11 8 10 8 9 6 5 2 2 3 3
38 36 34 36 33 31 30 29 33 34 14 11 11 12 11 11 17 9 7 5 4 4 6 5 8 9 11 14 14 8 10 10 6 7 6 12 11 7 6 3 3 2 4 7
42 38 34 36 36 33 30 23 28 36 21 8 17 20 22 17 14 14 13 7 4 12 5 7 5 6 4 11 11 9 9 9 5 11 8 2 13 9 9 2 3 5 6 10
46 41 36 36 36 33 32 28 24 26 22 21 25 18 24 26 23 19 9 8 6 3 4 3 1 7 3 9 12 17 10 8 4 10 12 18 20 17 16 15 16 11 12 15
47 43 39 36 34 32 32 29 22 26 9 7 9 17 32 21 30 22 20 13 11 12 8 3 3 3 3 8 9 8 8 7 7 13 16 20 20 18 13 9 8 15 17 15
47 44 41 37 32 30 28 26 24 29 13 3 5 10 17 26 33 23 28 18 9 5 5 4 5 9 5 9 5 11 13 12 10 11 15 9 15 2 6 11 16 17 18 15
48 47 42 37 35 36 27 12 26 34 23 2 2 4 8 17 22 27 25 16 15 10 6 5 7 7 5 5 12 22 27 23 23 22 23 26 18 20 21 24 24 21 15 19
50 50 46 40 39 37 25 11 9 36 33 4 3 4 4 11 11 10 11 17 9 11 9 8 4 5 6 6 19 20 16 13 10 16 19 24 24 22 21 25 29 30 31 29
52 53 47 42 40 35 23 6 6 29 25 8 3 3 5 12 7 6 12 9 11 8 5 4 5 8 6 8 13 26 33 35 37 34 31 33 32 29 25 23 26 30 29 29
57 53 51 46 30 18 20 12 20 26 11 9 6 5 5 14 5 5 7 7 3 5 4 6 7 6 9 9 18 22 21 20 21 17 14 16 19 24 27 26 25 28 29 29
66 58 25 9 18 26 27 11 14 10 9 7 4 10 4 11 7 5 7 4 3 4 7 9 5 12 28 31 23 13 11 12 10 10 16 22 22 18 18 18 19 20 22 24
47 14 7 32 40 19 6 8 7 8 4 9 12 17 6 7 6 3 3 4 4 4 5 6 5 5 15 36 40 32 17 13 14 13 14 12 15 17 18 19 18 19 20 23
38 29 41 27 9 5 6 6 5 7 7 9 16 20 16 9 6 3 6 5 5 5 10 4 5 5 16 8 13 17 17 14 11 8 7 8 11 13 15 18 20 21 21 23
42 17 8 11 8 6 10 12 7 7 8 13 19 12 12 9 7 3 3 6 6 8 5 5 5 5 15 15 16 17 15 13 10 7 6 8 11 12 12 16 17 20 22 23
8 8 10 7 7 9 8 11 7 11 12 26 29 10 6 6 7 4 6 3 3 5 6 7 6 18 19 19 17 16 13 10 7 5 3 5 8 12 15 15 16 19 21 26
6 8 8 8 9 10 18 16 14 12 23 32 19 6 4 3 4 3 4 6 7 8 6 5 10 20 22 22 17 13 10 8 6 4 4 6 8 12 15 17 17 17 23 25
8 7 7 9 11 7 18 19 14 26 32 28 8 4 5 5 5 7 11 6 8 4 5 8 14 22 23 19 15 12 9 7 6 6 8 10 11 13 17 18 17 19 21 25
4 3 3 14 10 14 19 23 22 36 35 8 4 9 8 5 5 7 6 5 3 8 12 12 18 22 19 16 13 11 8 6 6 8 11 12 12 14 15 17 18 18 20 23
Wind_Direction
258 258 250 230 214 200 181 212 224 215 174 194 220 233 222 1 222 226 247 278 265 249 202 233 245 252 42 157 173 177 167 286 259 30 92 356 301 292 243 254 163 237 283 275
248 251 255 242 204 189 173 218 235 211 174 214 209 221 240 231 225 215 205 232 234 214 225 238 228 213 91 170 204 211 166 200 254 176 178 177 235 205 244 184 215 238 268 265
244 246 246 235 201 191 184 213 211 186 212 248 269 214 227 223 217 241 228 249 220 212 224 227 231 206 142 178 207 265 253 274 259 280 357 88 196 202 215 218 222 251 234 274
240 243 241 232 204 193 183 218 243 234 205 221 229 244 232 221 220 218 223 232 229 222 237 217 221 200 157 182 194 195 241 263 265 270 281 239 261 253 208 211 231 259 272 276
238 239 235 224 205 192 188 195 215 220 295 290 230 219 235 232 230 208 217 232 220 234 241 236 247 221 210 214 181 193 196 259 266 277 267 258 257 260 248 232 252 263 269 278
236 237 238 227 209 192 189 209 201 220 180 209 211 225 237 242 238 226 243 243 239 235 251 260 293 283 280 265 181 194 186 221 244 273 22 274 268 243 235 227 226 242 255 265
237 233 236 224 215 203 204 189 191 209 242 220 224 233 244 248 234 249 222 244 245 234 208 115 99 165 235 208 212 223 212 217 222 274 279 264 269 107 308 234 247 244 265 286
237 233 231 228 213 209 209 206 189 210 248 238 236 236 231 240 243 238 247 206 212 154 152 204 209 210 227 216 209 210 233 207 225 237 250 278 296 222 174 171 31 138 262 297
237 236 232 231 216 210 210 212 203 184 240 240 235 222 224 226 220 202 223 230 171 172 208 207 227 220 225 184 176 217 207 257 235 179 240 258 44 137 161 186 241 137 173 320
234 236 231 224 219 211 210 214 207 194 215 240 210 212 228 220 228 234 168 177 177 193 203 231 231 239 249 220 203 179 185 194 212 225 243 263 288 154 161 239 336 98 307 330
231 233 231 220 216 212 212 217 208 202 211 227 221 224 211 205 221 219 134 147 183 178 205 226 223 243 228 237 248 170 176 174 187 207 220 252 155 131 216 106 114 297 302 316
232 229 226 219 213 210 210 217 210 208 207 224 220 228 229 224 220 229 195 216 157 195 196 216 230 229 247 238 243 183 230 211 197 196 207 171 189 238 231 268 319 299 294 313
230 224 219 212 210 208 209 208 205 200 214 251 251 240 236 232 231 229 219 217 221 228 219 285 286 245 255 235 231 256 209 228 239 243 238 256 255 245 246 264 273 270 297 306
224 220 211 208 209 205 207 205 207 190 169 223 245 224 227 235 232 232 228 229 236 225 225 200 224 235 222 254 280 268 258 177 231 250 261 279 270 256 239 251 271 294 301 296
220 216 207 204 202 198 202 205 205 191 188 204 231 244 226 222 226 227 232 226 204 181 179 203 226 252 265 243 267 245 222 240 236 247 262 293 279 224 222 285 290 290 290 279
218 210 202 196 193 195 182 207 210 199 206 240 253 266 234 221 221 223 225 218 219 212 205 223 237 229 240 259 251 250 243 243 245 264 265 272 278 279 286 287 289 288 272 286
215 204 200 188 193 194 177 180 204 194 199 203 291 242 203 187 178 178 186 201 203 208 222 215 235 236 224 258 252 250 264 255 258 262 266 267 269 274 282 286 288 291 292 289
213 200 188 179 184 187 188 171 189 178 180 183 232 227 198 175 177 162 173 179 193 218 220 204 218 236 217 254 257 247 248 253 258 257 257 266 278 281 283 288 291 290 290 291
197 176 166 166 170 170 169 156 152 167 180 190 206 197 193 170 155 137 147 155 159 209 226 213 210 206 223 233 246 246 241 240 249 251 261 276 284 286 286 288 288 289 291 290
160 162 148 146 154 149 146 117 169 182 231 227 238 217 165 175 167 162 130 164 189 208 216 169 231 245 242 245 241 235 223 208 227 261 277 285 286 286 290 292 294 293 293 295
151 142 107 139 138 122 118 144 173 205 237 217 198 201 151 182 184 143 211 171 165 224 182 200 231 249 227 236 238 235 229 232 241 250 260 270 281 290 298 300 299 298 297 294
172 150 134 124 128 129 154 178 183 210 212 202 194 176 165 154 177 162 182 183 177 232 148 224 250 243 232 185 190 201 209 214 213 210 235 266 284 295 300 304 309 310 307 306
136 129 138 142 162 169 187 180 194 201 199 178 170 146 148 131 162 145 190 186 202 143 201 230 229 175 167 176 179 175 182 187 190 203 231 262 283 297 304 306 311 314 313 315
128 148 142 189 176 208 200 191 167 186 170 161 162 146 142 130 159 153 185 186 140 222 230 228 229 197 178 177 183 177 181 197 217 232 245 283 300 304 309 308 312 315 316 313
130 152 176 189 201 188 188 179 156 160 162 156 155 100 98 127 139 190 151 183 226 218 226 206 195 181 174 178 177 179 191 202 216 244 285 294 297 301 311 319 326 332 330 318
160 196 156 180 161 158 169 162 157 158 156 148 140 141 185 177 175 178 202 202 213 219 211 184 164 169 174 170 174 179 191 206 232 263 279 283 291 291 293 310 326 337 338 335
146 237 221 172 156 163 166 166 168 162 158 162 155 182 188 125 198 203 203 215 195 172 169 166 170 167 164 167 173 188 201 225 258 277 276 280 281 279 284 293 320 330 338 347